Change the Weather History Date:

Sunday, May 25, 2014

  Actual Average Record
Temperature  
Mean Temperature 84 °F -  
Max Temperature 90 °F 86 °F 90 °F (2014)
Min Temperature 77 °F 78 °F 73 °F (2001)
Cooling Degree Days 18    
Growing Degree Days 34 (Base 50)    
Moisture  
Dew Point 72 °F    
Average Humidity 64    
Maximum Humidity 78    
Minimum Humidity 52    
Precipitation  
Precipitation 0.00 in - - ()
Sea Level Pressure  
Sea Level Pressure 29.91 in    
Wind  
Wind Speed 16 mph ()    
Max Wind Speed 23 mph    
Max Gust Speed 29 mph    
Visibility 6.8 miles    
Events      
Averages and records for this station are not official NWS values.
T = Trace of Precipitation, MM = Missing Value Source: Averaged Metar Reports

Daily Weather History Graph

Daily Weather History Graph

Search for Another Location

Airport or City:

Trip Planner

Search our weather history database for the weather conditions in past years. The results will help you decide how hot, cold, wet, or windy it might be!

Date:

Astronomy

May. 25, 2014 Rise Set
Actual Time 5:13 AM CST 6:12 PM CST
Civil Twilight 4:50 AM CST 6:36 PM CST
Nautical Twilight 4:22 AM CST 7:03 PM CST
Astronomical Twilight 3:54 AM CST 7:32 PM CST
Moon 2:48 AM CST (5/25) 3:37 PM CST (5/25)
Length of Visible Light 13h 46m
Length of Day
12h 59m
Waning Crescent, 10% of the Moon is Illuminated
May 25
Waning Crescent
May 28
New
Jun 5
First Quarter
Jun 12
Full
Jun 19
Last Quarter

Hourly Weather History & Observations

Time (CST) Temp. Heat Index Dew Point Humidity Pressure Visibility Wind Dir Wind Speed Gust Speed Precip Events Conditions
6:00 AM 71 °F - 65 °F 78% 29.91 in 10 mi NNE 18.4 mph - -   Haze
6:00 AM 82.4 °F 88.2 °F 73.4 °F 74% 29.92 in 6.2 mi East 17.3 mph - N/A   Partly Cloudy
7:00 AM 84.2 °F 89.6 °F 71.6 °F 66% 29.92 in 6.2 mi East 18.4 mph - N/A   Partly Cloudy
8:00 AM 84.2 °F 89.6 °F 71.6 °F 66% 29.95 in 6.2 mi East 17.3 mph - N/A   Partly Cloudy
9:00 AM 86.0 °F 91.8 °F 71.6 °F 62% 29.95 in 6.2 mi East 18.4 mph - N/A   Partly Cloudy
10:00 AM 87.8 °F 93.8 °F 71.6 °F 58% 29.95 in 6.2 mi East 18.4 mph - N/A   Partly Cloudy
11:00 AM 87.8 °F 95.6 °F 73.4 °F 62% 29.95 in 6.2 mi East 18.4 mph - N/A   Partly Cloudy
12:00 PM 88 °F - 73 °F 53% 29.95 in 9 mi East 17.3 mph - -   Haze
12:00 PM 87.8 °F 95.6 °F 73.4 °F 62% 29.95 in 6.2 mi East 17.3 mph - N/A   Partly Cloudy
1:00 PM 87.8 °F 93.8 °F 71.6 °F 58% 29.92 in 6.2 mi East 20.7 mph - N/A   Partly Cloudy
2:00 PM 89.6 °F 96.2 °F 71.6 °F 55% 29.89 in 6.2 mi East 21.9 mph - N/A   Partly Cloudy
3:00 PM 89 °F - 74 °F 52% 29.88 in 9 mi East 19.6 mph - -   Haze
3:00 PM 89.6 °F 98.2 °F 73.4 °F 59% 29.86 in 6.2 mi East 19.6 mph - N/A   Partly Cloudy
4:00 PM 87.8 °F 95.6 °F 73.4 °F 62% 29.86 in 6.2 mi East 23.0 mph - N/A   Mostly Cloudy
5:00 PM 86.0 °F 95.1 °F 75.2 °F 70% 29.86 in 6.2 mi East 20.7 mph - N/A   Scattered Clouds
6:00 PM 84 °F - 73 °F 63% 29.88 in 9 mi ENE 18.4 mph - -   Haze
6:00 PM 84.2 °F 90.9 °F 73.4 °F 70% 29.89 in 6.2 mi ENE 18.4 mph - N/A   Scattered Clouds
7:00 PM 82.4 °F 88.2 °F 73.4 °F 74% 29.89 in 6.2 mi ENE 17.3 mph 28.8 mph N/A   Scattered Clouds
8:00 PM 82.4 °F 88.2 °F 73.4 °F 74% 29.92 in 6.2 mi East 23.0 mph - N/A   Scattered Clouds